Time,TemperatureF,DewpointF,PressureIn,WindDirection,WindDirectionDegrees,WindSpeedMPH,WindSpeedGustMPH,Humidity,HourlyPrecipIn,Conditions,Clouds,dailyrainin,SoftwareType,DateUTC
2013-05-02 00:02:00,59.0,45.0,30.12,North,355,0.0,4.0,60,0.00,,,0.00,,2013-05-02 05:02:00,
2013-05-02 00:12:00,59.0,45.0,30.12,North,355,0.0,4.0,60,0.00,,,0.00,,2013-05-02 05:12:00,
2013-05-02 00:22:00,59.0,45.0,30.12,NNW,344,2.0,5.0,60,0.00,,,0.00,,2013-05-02 05:22:00,
2013-05-02 00:32:00,59.0,45.0,30.12,North,360,1.0,5.0,60,0.00,,,0.00,,2013-05-02 05:32:00,
2013-05-02 00:42:00,59.0,45.0,30.12,North,360,1.0,5.0,60,0.00,,,0.00,,2013-05-02 05:42:00,
2013-05-02 00:52:00,58.0,45.0,30.11,North,5,0.0,5.0,62,0.00,,,0.00,,2013-05-02 05:52:00,
2013-05-02 01:01:00,57.0,45.0,30.11,North,355,0.0,1.0,63,0.00,,,0.00,,2013-05-02 06:01:00,
2013-05-02 01:12:00,57.0,45.0,30.11,North,355,0.0,1.0,63,0.00,,,0.00,,2013-05-02 06:12:00,
2013-05-02 01:21:00,56.0,44.0,30.12,North,360,1.0,5.0,65,0.00,,,0.00,,2013-05-02 06:21:00,
2013-05-02 01:31:00,56.0,45.0,30.11,North,360,0.0,2.0,66,0.00,,,0.00,,2013-05-02 06:31:00,
2013-05-02 01:42:00,56.0,45.0,30.11,North,360,0.0,2.0,66,0.00,,,0.00,,2013-05-02 06:42:00,
2013-05-02 01:52:00,56.0,45.0,30.11,North,355,1.0,6.0,67,0.00,,,0.00,,2013-05-02 06:52:00,
2013-05-02 02:02:00,55.0,45.0,30.11,NNW,342,1.0,4.0,68,0.00,,,0.00,,2013-05-02 07:02:00,
2013-05-02 02:11:00,55.0,45.0,30.11,NNW,342,1.0,4.0,68,0.00,,,0.00,,2013-05-02 07:11:00,
2013-05-02 02:21:00,55.0,45.0,30.11,NNW,346,0.0,2.0,68,0.00,,,0.00,,2013-05-02 07:21:00,
2013-05-02 02:32:00,55.0,45.0,30.12,North,360,1.0,4.0,69,0.00,,,0.00,,2013-05-02 07:32:00,
2013-05-02 02:42:00,55.0,45.0,30.12,North,360,1.0,4.0,69,0.00,,,0.00,,2013-05-02 07:42:00,
2013-05-02 02:52:00,55.0,45.0,30.12,NNW,348,1.0,4.0,68,0.00,,,0.00,,2013-05-02 07:52:00,
2013-05-02 03:02:00,54.0,44.0,30.11,North,355,1.0,6.0,68,0.00,,,0.00,,2013-05-02 08:02:00,
2013-05-02 03:11:00,54.0,44.0,30.11,North,355,1.0,6.0,68,0.00,,,0.00,,2013-05-02 08:11:00,
2013-05-02 03:22:00,54.0,43.0,30.11,North,5,1.0,7.0,67,0.00,,,0.00,,2013-05-02 08:22:00,
2013-05-02 03:32:00,53.0,43.0,30.13,North,9,0.0,7.0,68,0.00,,,0.00,,2013-05-02 08:32:00,
2013-05-02 03:42:00,53.0,43.0,30.13,North,9,0.0,7.0,68,0.00,,,0.00,,2013-05-02 08:42:00,
2013-05-02 03:52:00,53.0,43.0,30.13,North,360,1.0,3.0,68,0.00,,,0.00,,2013-05-02 08:52:00,
2013-05-02 04:02:00,52.0,42.0,30.13,NNW,342,2.0,5.0,69,0.00,,,0.00,,2013-05-02 09:02:00,
2013-05-02 04:11:00,52.0,42.0,30.13,NNW,342,2.0,5.0,69,0.00,,,0.00,,2013-05-02 09:11:00,
2013-05-02 04:21:00,52.0,42.0,30.13,NNW,346,0.0,7.0,69,0.00,,,0.00,,2013-05-02 09:21:00,
2013-05-02 04:32:00,51.0,41.0,30.13,North,5,0.0,4.0,69,0.00,,,0.00,,2013-05-02 09:32:00,
2013-05-02 04:42:00,51.0,41.0,30.13,North,5,0.0,4.0,69,0.00,,,0.00,,2013-05-02 09:42:00,
2013-05-02 04:52:00,51.0,42.0,30.13,NNE,17,0.0,5.0,71,0.00,,,0.00,,2013-05-02 09:52:00,
2013-05-02 05:02:00,51.0,42.0,30.13,NW,322,0.0,1.0,71,0.00,,,0.00,,2013-05-02 10:02:00,
2013-05-02 05:12:00,51.0,42.0,30.13,NW,322,0.0,1.0,71,0.00,,,0.00,,2013-05-02 10:12:00,
2013-05-02 05:22:00,50.0,41.0,30.13,North,355,1.0,3.0,71,0.00,,,0.00,,2013-05-02 10:22:00,
2013-05-02 05:33:00,50.0,41.0,30.14,NNW,346,1.0,6.0,72,0.00,,,0.00,,2013-05-02 10:33:00,
2013-05-02 05:42:00,50.0,41.0,30.14,NNW,346,1.0,6.0,72,0.00,,,0.00,,2013-05-02 10:42:00,
2013-05-02 05:53:00,50.0,41.0,30.15,North,5,1.0,5.0,71,0.00,,,0.00,,2013-05-02 10:53:00,
2013-05-02 06:02:00,50.0,41.0,30.15,North,350,1.0,5.0,72,0.00,,,0.00,,2013-05-02 11:02:00,
2013-05-02 06:12:00,50.0,41.0,30.15,North,350,1.0,5.0,72,0.00,,,0.00,,2013-05-02 11:12:00,
2013-05-02 06:22:00,50.0,41.0,30.16,NNW,346,1.0,4.0,72,0.00,,,0.00,,2013-05-02 11:22:00,
2013-05-02 06:32:00,49.0,40.0,30.16,North,360,1.0,4.0,72,0.00,,,0.00,,2013-05-02 11:32:00,
2013-05-02 06:42:00,49.0,40.0,30.16,North,360,1.0,4.0,72,0.00,,,0.00,,2013-05-02 11:42:00,
2013-05-02 06:52:00,49.0,40.0,30.17,North,350,3.0,6.0,72,0.00,,,0.00,,2013-05-02 11:52:00,
2013-05-02 07:01:00,50.0,41.0,30.19,NNW,344,4.0,10.0,71,0.00,,,0.00,,2013-05-02 12:01:00,
2013-05-02 07:11:00,50.0,41.0,30.19,NNW,344,4.0,10.0,71,0.00,,,0.00,,2013-05-02 12:11:00,
2013-05-02 07:21:00,50.0,40.0,30.20,NNW,344,6.0,11.0,69,0.00,,,0.00,,2013-05-02 12:21:00,
2013-05-02 07:32:00,50.0,41.0,30.20,North,5,1.0,5.0,71,0.00,,,0.00,,2013-05-02 12:32:00,
2013-05-02 07:42:00,50.0,41.0,30.20,North,5,1.0,5.0,71,0.00,,,0.00,,2013-05-02 12:42:00,
2013-05-02 07:52:00,51.0,42.0,30.20,NNW,345,1.0,7.0,70,0.00,,,0.00,,2013-05-02 12:52:00,
2013-05-02 08:01:00,51.0,41.0,30.20,North,355,1.0,7.0,69,0.00,,,0.00,,2013-05-02 13:01:00,
2013-05-02 08:11:00,51.0,41.0,30.20,North,355,1.0,7.0,69,0.00,,,0.00,,2013-05-02 13:11:00,
2013-05-02 08:21:00,51.0,40.0,30.20,North,360,1.0,8.0,67,0.00,,,0.00,,2013-05-02 13:21:00,
2013-05-02 08:31:00,52.0,41.0,30.21,NNW,348,1.0,4.0,67,0.00,,,0.00,,2013-05-02 13:31:00,
2013-05-02 08:42:00,52.0,41.0,30.21,NNW,348,1.0,4.0,67,0.00,,,0.00,,2013-05-02 13:42:00,
2013-05-02 08:52:00,53.0,42.0,30.21,NNE,12,1.0,5.0,66,0.00,,,0.00,,2013-05-02 13:52:00,
2013-05-02 09:02:00,52.0,42.0,30.22,North,5,2.0,10.0,68,0.02,,,0.02,,2013-05-02 14:02:00,
2013-05-02 09:11:00,52.0,42.0,30.22,North,5,2.0,10.0,68,0.02,,,0.02,,2013-05-02 14:11:00,
2013-05-02 09:22:00,51.0,44.0,30.23,North,355,3.0,7.0,76,0.04,,,0.04,,2013-05-02 14:22:00,
2013-05-02 09:32:00,50.0,43.0,30.25,NNW,347,0.0,6.0,77,0.06,,,0.06,,2013-05-02 14:32:00,
2013-05-02 09:42:00,50.0,43.0,30.25,NNW,347,0.0,6.0,77,0.06,,,0.06,,2013-05-02 14:42:00,
2013-05-02 09:52:00,48.0,42.0,30.20,North,355,3.0,7.0,79,0.17,,,0.17,,2013-05-02 14:52:00,
2013-05-02 10:02:00,49.0,44.0,30.21,North,355,0.0,4.0,83,0.15,,,0.17,,2013-05-02 15:02:00,
2013-05-02 10:12:00,49.0,44.0,30.21,North,355,0.0,4.0,83,0.15,,,0.17,,2013-05-02 15:12:00,
2013-05-02 10:22:00,51.0,46.0,30.21,North,349,2.0,8.0,83,0.13,,,0.17,,2013-05-02 15:22:00,
2013-05-02 10:33:00,52.0,46.0,30.22,North,360,4.0,9.0,80,0.11,,,0.17,,2013-05-02 15:33:00,
2013-05-02 10:43:00,52.0,46.0,30.22,North,360,4.0,9.0,80,0.11,,,0.17,,2013-05-02 15:43:00,
2013-05-02 11:02:00,52.0,45.0,30.22,NNW,348,2.0,7.0,78,0.00,,,0.17,,2013-05-02 16:02:00,
2013-05-02 11:13:00,52.0,45.0,30.22,NNW,348,2.0,7.0,78,0.00,,,0.17,,2013-05-02 16:13:00,
2013-05-02 11:22:00,53.0,45.0,30.22,NNE,15,4.0,13.0,74,0.00,,,0.17,,2013-05-02 16:22:00,
2013-05-02 11:32:00,54.0,46.0,30.22,North,355,2.0,9.0,73,0.00,,,0.17,,2013-05-02 16:32:00,
2013-05-02 11:43:00,54.0,46.0,30.22,North,355,2.0,9.0,73,0.00,,,0.17,,2013-05-02 16:43:00,
2013-05-02 11:52:00,53.0,44.0,30.21,North,360,6.0,9.0,72,0.00,,,0.17,,2013-05-02 16:52:00,
2013-05-02 12:02:00,54.0,46.0,30.21,North,10,3.0,8.0,73,0.00,,,0.17,,2013-05-02 17:02:00,
2013-05-02 12:12:00,54.0,46.0,30.21,North,10,3.0,8.0,73,0.00,,,0.17,,2013-05-02 17:12:00,
2013-05-02 12:22:00,55.0,44.0,30.21,NNW,329,5.0,9.0,67,0.00,,,0.17,,2013-05-02 17:22:00,
2013-05-02 12:31:00,54.0,44.0,30.21,NNW,346,5.0,8.0,70,0.00,,,0.17,,2013-05-02 17:31:00,
2013-05-02 12:42:00,54.0,44.0,30.21,NNW,346,5.0,8.0,70,0.00,,,0.17,,2013-05-02 17:42:00,
2013-05-02 12:52:00,54.0,45.0,30.22,North,350,2.0,8.0,71,0.00,,,0.17,,2013-05-02 17:52:00,
2013-05-02 13:01:00,53.0,43.0,30.21,NNE,27,0.0,8.0,70,0.00,,,0.17,,2013-05-02 18:01:00,
2013-05-02 13:11:00,53.0,43.0,30.21,NNE,27,0.0,8.0,70,0.00,,,0.17,,2013-05-02 18:11:00,
2013-05-02 13:21:00,52.0,42.0,30.22,NW,324,6.0,12.0,69,0.00,,,0.17,,2013-05-02 18:21:00,
2013-05-02 13:31:00,52.0,43.0,30.22,North,355,4.0,11.0,72,0.00,,,0.17,,2013-05-02 18:31:00,
2013-05-02 13:41:00,52.0,43.0,30.22,North,355,4.0,11.0,72,0.00,,,0.17,,2013-05-02 18:41:00,
2013-05-02 13:52:00,52.0,43.0,30.22,North,360,3.0,9.0,70,0.00,,,0.17,,2013-05-02 18:52:00,
2013-05-02 14:01:00,52.0,42.0,30.21,North,5,4.0,8.0,69,0.00,,,0.17,,2013-05-02 19:01:00,
2013-05-02 14:11:00,52.0,42.0,30.21,North,5,4.0,8.0,69,0.00,,,0.17,,2013-05-02 19:11:00,
2013-05-02 14:21:00,51.0,42.0,30.20,North,349,5.0,14.0,70,0.00,,,0.17,,2013-05-02 19:21:00,
2013-05-02 14:32:00,51.0,42.0,30.21,North,355,2.0,11.0,71,0.00,,,0.17,,2013-05-02 19:32:00,
2013-05-02 14:42:00,51.0,42.0,30.21,North,355,2.0,11.0,71,0.00,,,0.17,,2013-05-02 19:42:00,
2013-05-02 14:52:00,51.0,42.0,30.21,NNW,344,3.0,12.0,71,0.00,,,0.17,,2013-05-02 19:52:00,
2013-05-02 15:02:00,50.0,41.0,30.21,North,5,5.0,14.0,71,0.00,,,0.17,,2013-05-02 20:02:00,
2013-05-02 15:11:00,50.0,41.0,30.21,North,5,5.0,14.0,71,0.00,,,0.17,,2013-05-02 20:11:00,
2013-05-02 15:22:00,50.0,40.0,30.20,North,350,7.0,15.0,69,0.00,,,0.17,,2013-05-02 20:22:00,
2013-05-02 15:32:00,49.0,40.0,30.21,NNW,331,6.0,16.0,71,0.00,,,0.17,,2013-05-02 20:32:00,
2013-05-02 15:41:00,49.0,40.0,30.21,NNW,331,6.0,16.0,71,0.00,,,0.17,,2013-05-02 20:41:00,
2013-05-02 15:52:00,48.0,39.0,30.20,North,355,5.0,14.0,71,0.00,,,0.17,,2013-05-02 20:52:00,
2013-05-02 16:01:00,48.0,39.0,30.21,North,355,6.0,12.0,71,0.00,,,0.17,,2013-05-02 21:01:00,
2013-05-02 16:11:00,48.0,39.0,30.21,North,355,6.0,12.0,71,0.00,,,0.17,,2013-05-02 21:11:00,
2013-05-02 16:21:00,47.0,38.0,30.20,NNW,348,8.0,13.0,71,0.00,,,0.17,,2013-05-02 21:21:00,
2013-05-02 16:33:00,47.0,38.0,30.20,North,355,5.0,14.0,72,0.00,,,0.17,,2013-05-02 21:33:00,
2013-05-02 16:42:00,47.0,38.0,30.20,North,355,5.0,14.0,72,0.00,,,0.17,,2013-05-02 21:42:00,
2013-05-02 16:53:00,47.0,38.0,30.20,NNW,344,7.0,13.0,71,0.00,,,0.17,,2013-05-02 21:53:00,
2013-05-02 17:02:00,47.0,39.0,30.20,North,355,2.0,9.0,73,0.00,,,0.17,,2013-05-02 22:02:00,
2013-05-02 17:12:00,47.0,39.0,30.20,North,355,2.0,9.0,73,0.00,,,0.17,,2013-05-02 22:12:00,
2013-05-02 17:22:00,47.0,39.0,30.19,North,355,3.0,15.0,73,0.00,,,0.17,,2013-05-02 22:22:00,
2013-05-02 17:32:00,47.0,39.0,30.19,North,355,2.0,13.0,73,0.00,,,0.17,,2013-05-02 22:32:00,
2013-05-02 17:42:00,47.0,39.0,30.19,North,355,2.0,13.0,73,0.00,,,0.17,,2013-05-02 22:42:00,
2013-05-02 17:52:00,46.0,38.0,30.19,North,5,6.0,13.0,73,0.00,,,0.17,,2013-05-02 22:52:00,
2013-05-02 18:02:00,46.0,38.0,30.19,North,355,2.0,9.0,73,0.00,,,0.17,,2013-05-02 23:02:00,
2013-05-02 18:11:00,46.0,38.0,30.19,North,355,2.0,9.0,73,0.00,,,0.17,,2013-05-02 23:11:00,
2013-05-02 18:22:00,46.0,38.0,30.19,North,5,1.0,9.0,74,0.00,,,0.17,,2013-05-02 23:22:00,
2013-05-02 18:32:00,45.0,37.0,30.20,NW,325,7.0,14.0,73,0.00,,,0.17,,2013-05-02 23:32:00,
2013-05-02 18:42:00,45.0,37.0,30.20,NW,325,7.0,14.0,73,0.00,,,0.17,,2013-05-02 23:42:00,
2013-05-02 18:52:00,45.0,38.0,30.19,NNW,341,5.0,12.0,75,0.00,,,0.17,,2013-05-02 23:52:00,
2013-05-02 19:01:00,45.0,38.0,30.19,NNW,344,2.0,8.0,75,0.00,,,0.17,,2013-05-03 00:01:00,
2013-05-02 19:11:00,45.0,38.0,30.19,NNW,344,2.0,8.0,75,0.00,,,0.17,,2013-05-03 00:11:00,
2013-05-02 19:21:00,44.0,37.0,30.19,North,5,4.0,9.0,76,0.00,,,0.17,,2013-05-03 00:21:00,
2013-05-02 19:31:00,44.0,37.0,30.19,North,351,5.0,10.0,77,0.00,,,0.17,,2013-05-03 00:31:00,
2013-05-02 19:41:00,44.0,37.0,30.19,North,351,5.0,10.0,77,0.00,,,0.17,,2013-05-03 00:41:00,
2013-05-02 19:52:00,44.0,38.0,30.19,North,360,3.0,10.0,78,0.00,,,0.17,,2013-05-03 00:52:00,
2013-05-02 20:01:00,43.0,37.0,30.19,North,10,1.0,8.0,78,0.00,,,0.17,,2013-05-03 01:01:00,
2013-05-02 20:11:00,43.0,37.0,30.19,North,10,1.0,8.0,78,0.00,,,0.17,,2013-05-03 01:11:00,
2013-05-02 20:21:00,43.0,37.0,30.20,North,11,2.0,7.0,79,0.00,,,0.17,,2013-05-03 01:21:00,
2013-05-02 20:31:00,43.0,37.0,30.20,NNW,342,1.0,6.0,80,0.00,,,0.17,,2013-05-03 01:31:00,
2013-05-02 20:42:00,43.0,37.0,30.20,NNW,342,1.0,6.0,80,0.00,,,0.17,,2013-05-03 01:42:00,
2013-05-02 20:52:00,43.0,37.0,30.19,NNE,12,1.0,7.0,80,0.00,,,0.17,,2013-05-03 01:52:00,
2013-05-02 21:01:00,43.0,38.0,30.20,NNW,342,3.0,7.0,81,0.00,,,0.17,,2013-05-03 02:01:00,
2013-05-02 21:11:00,43.0,38.0,30.20,NNW,342,3.0,7.0,81,0.00,,,0.17,,2013-05-03 02:11:00,
2013-05-02 21:21:00,43.0,38.0,30.20,NNW,348,2.0,8.0,83,0.00,,,0.17,,2013-05-03 02:21:00,
2013-05-02 21:32:00,42.0,37.0,30.21,ENE,57,1.0,6.0,83,0.00,,,0.17,,2013-05-03 02:32:00,
2013-05-02 21:42:00,42.0,37.0,30.21,ENE,57,1.0,6.0,83,0.00,,,0.17,,2013-05-03 02:42:00,
2013-05-02 21:52:00,42.0,38.0,30.20,North,360,1.0,6.0,84,0.00,,,0.17,,2013-05-03 02:52:00,
2013-05-02 22:01:00,42.0,38.0,30.20,North,5,1.0,5.0,84,0.00,,,0.17,,2013-05-03 03:01:00,
2013-05-02 22:11:00,42.0,38.0,30.20,North,5,1.0,5.0,84,0.00,,,0.17,,2013-05-03 03:11:00,
2013-05-02 22:21:00,42.0,38.0,30.20,North,360,1.0,4.0,84,0.00,,,0.17,,2013-05-03 03:21:00,
2013-05-02 22:33:00,42.0,38.0,30.19,North,360,0.0,9.0,85,0.00,,,0.17,,2013-05-03 03:33:00,
2013-05-02 22:42:00,42.0,38.0,30.19,North,360,0.0,9.0,85,0.00,,,0.17,,2013-05-03 03:42:00,
2013-05-02 22:53:00,42.0,38.0,30.19,North,360,1.0,5.0,85,0.00,,,0.17,,2013-05-03 03:53:00,
2013-05-02 23:03:00,42.0,38.0,30.19,NNE,12,0.0,4.0,85,0.00,,,0.17,,2013-05-03 04:03:00,
2013-05-02 23:12:00,42.0,38.0,30.19,NNE,12,0.0,4.0,85,0.00,,,0.17,,2013-05-03 04:12:00,
2013-05-02 23:22:00,42.0,38.0,30.19,North,351,1.0,5.0,85,0.00,,,0.17,,2013-05-03 04:22:00,
2013-05-02 23:32:00,41.0,37.0,30.18,NNE,16,1.0,5.0,85,0.01,,,0.18,,2013-05-03 04:32:00,
2013-05-02 23:42:00,41.0,37.0,30.18,NNE,16,1.0,5.0,85,0.01,,,0.18,,2013-05-03 04:42:00,
2013-05-02 23:53:00,41.0,37.0,30.18,North,360,0.0,4.0,85,0.01,,,0.18,,2013-05-03 04:53:00,